星链-32247 (STARLINK-32247)

导读

STARLINK-32247是美国SpaceX公司于2024年8月12日发射的星链第二代低轨卫星,隶属于Starlink全球卫星互联网星座。星链星座旨在为全球缺乏传统网络基础设施的偏远地区提供高速低延迟宽带服务。该卫星采用第二代相控阵技术与数字处理,优化频谱利用效率,设计寿命约5年,助力SpaceX持续扩展星座覆盖与网络容量,推动全球互联覆盖能力提升。

基本信息
目录编号:
60446
目录名称:
STARLINK-32247
国际标识:
2024-144X
轨道中心:
EARTH
卫星名称:
星链-32247 (STARLINK-32247)
卫星全名:
星链-32247 (STARLINK-32247)
卫星状态:
在轨 (已飞行760 天)
发射日期:
2024-08-12 UTC
国别 :
美国 (US)
星等 :
--
该卫星已列入 空间交会检测服务 Space Conjunction Data Service (SCDS) ,当前飞行风险评估等级: 无高风险
轨道信息
数据来源 国际轨道数据 AOE轨道数据
星历时间 2026-09-11T02:53:30+0800
1天前
查看轨道信息
2026-09-07T03:00:00+0800
5天前
查看轨道信息
半长轴 6839.731km 6840.87km
偏心率 0.0000959 0.0001027
轨道倾角 53.162° 53.161°
近地点辐角 68.552° 93.483°
升交点赤经 64.799° 83.485°
平近点角 291.558° 140.103°
近地点 460.938km 462.03km
远地点 462.25km 463.436km
周期 93.825分钟 93.848分钟
每日圈数 15.347736 15.343903
详细信息
卫星平台:
Starlink v2.0 mini
运营商:
太空探索技术公司
运营商所在国:
美国
制造商(研发单位):
太空探索技术公司
制造商所在国:
美国
使用方式:
暂无
卫星简介
星链(Starlink)计划是由太空探索技术公司(SpaceX)提出的一个巨型低轨卫星互联网星座项目,计划在2019年至2024年间在太空搭建由约1.2万颗卫星组成的“星链”网络,其中1584颗将部署在地球上空550千米处的近地轨道,并从2020年开始工作。该卫星仍在工作。
2D轨道图
3D轨道图
轨道高度分析图
轨道倾角分析图
轨道综合分析图
查看轨道综合分析图
交会数据列表
事件ID 空间交会对象 最接近时刻(TCA) 交会距离 交会风险概率(CRP) 交会风险指数(CRI) 操作
CDM_260911-185706-044606-925721
2026-09-11T
18:57:43+0000
0.562 km
远距离
1.311365E-4 高风险 0.77
CDM_260912-212606-044606-918721
2026-09-12T
21:26:10+0000
0.848 km
远距离
3.335539E-5 中风险 0.65
CDM_260914-025306-044606-344721
2026-09-14T
02:53:52+0000
0.902 km
远距离
2.147298E-5 中风险 0.62
CDM_260911-190305-877206-044622
2026-09-11T
19:03:57+0000
1.241 km
极远距离
1.113666E-5 中风险 0.56
CDM_260912-001606-044606-551821
2026-09-12T
00:16:55+0000
1.204 km
极远距离
7.880467E-6 低风险 0.53
CDM_260913-021506-044606-947021
2026-09-13T
02:15:20+0000
1.364 km
极远距离
7.850684E-6 低风险 0.53
CDM_260911-203805-877306-044622
2026-09-11T
20:38:10+0000
1.433 km
极远距离
6.830142E-6 低风险 0.52
CDM_260912-192905-247706-044622
2026-09-12T
19:29:14+0000
1.440 km
极远距离
6.407638E-6 低风险 0.51
CDM_260913-120506-044606-537121
2026-09-13T
12:05:21+0000
1.233 km
极远距离
5.287617E-6 低风险 0.49
CDM_260911-211906-044606-490622
2026-09-11T
21:19:12+0000
1.551 km
极远距离
5.049082E-6 低风险 0.49
与全量物体交会距离演化趋势
与全量物体交会风险概率演化趋势